Location: ?
(35.1569°N, 139.6666°E)
Time: 20:18:46
(UTC+00:00)

Daily predictions for brighter satellites

Satellite Brightness Start Highest point End
(mag) Time Altitude Azimuth Time Altitude Azimuth Time Altitude Azimuth
Cosmos 2369 Rocket 4.5 12:05:31 10° N 12:06:52 16° N 12:06:52 16° N
Terra 4.5 12:18:16 15° NNW 12:18:16 15° NNW 12:19:03 10° NNW
Cosmos 1943 Rocket 4.2 12:21:29 10° NW 12:23:53 22° WNW 12:23:53 22° WNW
CZ-2D R/B 4.3 16:54:30 10° N 16:56:07 20° N 16:56:07 20° N
Cosmos 2082 Rocket 4.4 17:06:53 16° N 17:06:53 16° N 17:08:14 10° N
ADEOS II 4.2 17:01:24 10° NNE 17:03:09 22° NNE 17:03:09 22° NNE
SL-16 R/B 3.3 17:18:53 10° N 17:24:14 41° ENE 17:25:18 37° E
Lacrosse 5 4.2 17:26:56 16° N 17:26:56 16° N 17:28:35 10° NNE
SL-16 R/B 2.8 17:33:12 63° NNE 17:33:12 63° NNE 17:38:31 10° N
CENTAUR R/B 2.6 17:40:05 60° ENE 17:40:05 60° ENE 17:45:36 10° NE
Cosmos 2251 Rocket 4.3 17:45:24 48° NNE 17:45:24 48° NNE 17:49:10 10° NNE
CZ-4C R/B 4.4 17:47:45 12° NNW 17:47:45 12° NNW 17:48:42 10° N
CZ-3 R/B 4.1 17:39:15 38° SW 17:49:17 52° S 17:59:34 10° E
METEOR-M 4.4 17:44:03 10° NNE 17:48:58 65° ENE 17:48:58 65° ENE
ATLAS 5 CENTAUR R/B 4.0 17:54:02 11° E 17:54:02 11° E 17:54:35 10° E
Resurs 1-4 Rocket 4.4 17:50:32 10° NNW 17:51:18 13° NNW 17:51:18 13° NNW
Atlas Centaur 2 3.4 17:55:59 28° SE 17:55:59 28° SE 18:00:28 10° E
COSMOS 2455 3.1 18:00:07 56° NW 18:00:07 56° NW 18:05:28 10° NNE
Cosmos 2228 4.3 18:05:35 34° N 18:05:35 34° N 18:08:01 10° N
Meteor 2-3 Rocket 3.7 18:05:59 10° N 18:11:48 86° E 18:15:11 26° S
H-2A R/B 3.5 18:09:52 10° NNE 18:14:51 38° E 18:19:51 10° SSE
NOAA 11 4.2 18:10:41 10° N 18:16:01 62° WNW 18:16:01 62° WNW
Tiangong 0.8 18:18:54 13° ESE 18:18:54 13° ESE 18:19:17 10° ESE
Cosmos 1867 3.7 18:16:28 51° S 18:17:42 69° ESE 18:23:08 10° NE
Okean 1-7 Rocket 4.1 18:18:48 10° N 18:23:11 57° E 18:27:30 10° SSE
Cosmos 1833 4.1 18:23:32 60° WSW 18:24:18 68° WNW 18:30:01 10° NNE
Cosmos 1900 4.5 18:26:37 55° WNW 18:26:37 55° WNW 18:31:31 10° NNE
SJ 16-02 4.2 18:24:41 10° SE 18:26:52 14° E 18:29:04 10° ENE
DELTA 2 R/B (1) 4.0 18:25:38 42° NW 18:27:07 56° N 18:32:35 10° ENE
Cosmos 1862 4.1 18:24:42 10° N 18:27:09 39° N 18:27:09 39° N
Cosmos 1934 Rocket 4.3 18:22:52 10° N 18:29:11 71° E 18:35:30 10° SSE
Cosmos 540 Rocket 4.0 18:24:17 10° N 18:29:19 57° ENE 18:34:20 10° SSE
Envisat 3.6 18:24:42 10° N 18:28:48 39° NW 18:28:48 39° NW
IRAS Rocket 4.1 18:24:01 10° NNE 18:29:36 87° WNW 18:32:02 35° SSW
Cosmos 2360 Rocket 2.2 18:29:32 10° NNW 18:35:10 80° ENE 18:40:46 10° SSE
Cosmos 2285 Rocket 4.2 18:30:29 17° S 18:35:28 72° ESE 18:41:49 10° NNE
CZ-2C R/B 2.2 18:32:07 10° N 18:36:53 66° WNW 18:37:51 52° SW
Cosmos 1602 Rocket 3.4 18:34:41 10° N 18:39:09 88° W 18:43:34 10° S
Cosmos 1763 Rocket 3.3 18:37:53 10° NNW 18:43:02 76° WSW 18:48:13 10° S
Cosmos 1339 Rocket 4.4 18:42:57 28° SSW 18:46:06 59° W 18:52:06 10° N
Cosmos 2322 Rocket 2.1 18:40:33 10° NNW 18:46:09 64° WSW 18:51:41 10° S
Cosmos 1818 3.4 18:41:42 10° NNW 18:47:10 79° WSW 18:52:34 10° SSE
NOSS 3-2 (C) 3.6 18:44:53 18° S 18:48:29 54° ESE 18:53:57 10° NE
Cosmos 1812 2.4 18:48:05 36° S 18:49:26 81° E 18:52:57 10° N
Thor Agena Rocket 3.7 18:44:29 10° NNE 18:49:38 72° ESE 18:54:49 10° S
IRS-1D 3.5 18:45:29 10° N 18:50:49 77° WNW 18:55:01 17° SSW
Cosmos 2219 Rocket 2.8 18:48:29 10° NNW 18:54:02 58° ENE 18:59:31 10° SE
CZ-4 R/B 4.4 18:54:31 10° N 18:58:47 36° WNW 18:59:56 31° WSW
Cosmos 2333 Rocket 2.2 18:57:33 10° NNW 19:03:10 60° WSW 19:08:42 10° S
Cosmos 1939 Rocket 3.5 18:59:17 10° NNE 19:03:11 56° E 19:07:04 10° S
Cosmos 676 Rocket 4.4 19:03:18 27° WSW 19:05:32 42° WNW 19:10:27 10° N
SL-16 R/B 3.4 19:03:38 10° NW 19:12:18 10° SSW 19:06:33 21° W
Cosmos 1758 Rocket 4.3 19:05:44 10° NNW 19:09:30 29° W 19:10:35 26° WSW
Cosmos 1605 Rocket 3.9 19:09:41 10° N 19:15:57 84° W 19:22:05 10° S
CBERS-1 4.4 19:10:53 10° NNE 19:15:57 65° ESE 19:20:59 10° S
SL-16 R/B 4.2 19:18:18 12° WNW 19:18:18 12° WNW 19:19:30 10° WNW
SeaSat 1 2.8 19:12:59 10° S 19:17:36 41° WSW 19:22:14 10° NW
ATLAS CENTAUR R/B 3.7 19:14:16 10° N 19:17:48 26° NE 19:21:22 10° ESE
Lacrosse 5 rocket 1.1 19:16:43 26° WSW 19:18:23 52° NW 19:21:46 10° NNE
Cosmos 2058 Rocket 3.4 19:14:13 10° S 19:18:34 68° E 19:23:00 10° NNE
Meteor 2-13 Rocket 4.4 19:13:52 10° S 19:20:00 84° W 19:26:10 10° N
NOSS 3-2 (A) 4.1 19:20:34 19° W 19:23:28 31° NW 19:28:36 10° NNE
Cosmos 2151 2.8 19:20:42 10° N 19:24:50 85° W 19:28:59 10° S
Cosmos 968 Rocket 3.6 19:21:07 10° SSW 19:26:18 79° ESE 19:31:29 10° NNE
Cosmos 1726 Rocket 3.8 19:22:21 10° SSW 19:26:28 44° W 19:30:37 10° N
CENTAUR R/B 3.9 19:27:14 13° W 19:30:41 20° NW 19:35:34 10° N
OAO 1 Rocket 4.5 19:26:23 15° W 19:30:52 76° SSW 19:36:12 10° ESE
Cosmos 2333 4.5 19:27:26 10° NW 19:32:46 44° WSW 19:38:03 10° S
ATLAS 5 CENTAUR R/B 2.0 19:34:39 16° W 19:36:27 25° NW 19:39:18 10° N
Atlas Centaur 2 2.8 19:38:10 12° WSW 19:43:24 54° S 19:50:19 10° E
Cosmos 1378 2.6 19:41:32 10° S 19:44:37 87° W 19:47:44 10° N
Cosmos 1238 Rocket 3.9 19:39:27 10° S 19:44:52 77° E 19:50:37 10° N
Cosmos 1076 Rocket 3.4 19:42:01 10° N 19:46:16 83° W 19:50:31 10° S
COSMOS 2428 3.2 19:40:32 10° NNW 19:46:16 70° ENE 19:51:57 10° SSE
Cosmos 1782 2.6 19:45:55 10° S 19:49:40 84° W 19:53:28 10° N
COSMO-SKYMED 1 3.3 19:45:27 10° SSE 19:49:42 59° ENE 19:53:59 10° N
Cosmos 1825 Rocket 4.4 19:46:06 10° NNW 19:49:53 28° W 19:53:38 10° SSW
USA 215 3.6 19:44:32 10° SE 19:51:04 75° NE 19:57:35 10° NW
Tiangong 0.1 19:51:37 10° SW 19:52:26 11° SW 19:53:16 10° SSW
Cosmos 1933 3.8 19:48:55 10° S 19:52:46 65° E 19:56:42 10° NNE
CZ-3 Stage 3 3.7 19:48:34 10° SW 19:52:47 42° SSE 20:07:05 10° E
H-2A R/B 3.3 19:49:40 10° NNW 19:53:56 25° WNW 19:58:13 10° WSW
Cosmos 1000 Rocket 4.5 19:52:33 10° S 19:58:40 80° W 20:04:52 10° N
GP-B 3.6 19:55:44 10° SSW 19:59:49 38° W 20:03:55 10° NNW
Cosmos 1515 3.7 19:57:01 10° SSW 20:00:14 44° W 20:03:29 10° N
USA 238 DEB 3.5 19:54:18 10° SSW 20:00:25 86° WNW 20:06:59 10° NNE
USA 238 3.5 19:54:23 10° SSW 20:00:30 87° WNW 20:07:05 10° NNE
